Location: Newark
(40.9833°N, 0.0333°W)
Time: 23:05:33
(UTC+00:00)

Transit 4A - Pass Details

Date: 03 November 2020
Orbit: 862 x 982 km, 66.8° (Epoch: 29 November)

Event Time Altitude Azimuth Distance (km) Brightness Sun altitude
Rises 12:37:26 0° 179° (S) 3,569 12.0 32.4°
Reaches altitude 10° 12:40:10 10° 169° (S) 2,648 11.4 32.2°
Maximum altitude 12:45:34 33° 108° (ESE) 1,569 9.4 31.9°
Drops below altitude 10° 12:51:06 10° 48° (NE) 2,722 10.0 31.6°
Sets 12:53:56 0° 39° (NE) 3,683 10.5 31.4°
